K5RG-3 Weather Reports


Display with metric or nautical units.
time (UTC)temp
F
wind
direction
speed
MPH
gust
MPH
rain 1hr
in
rain 24hr
in
rain mn
in
humidity
%
barometer
mb
20260901080053 81 122 0.0 0.0 0.00 0.04 0.00 88 1012.7
20260901074550 81 122 0.0 0.0 0.00 0.04 0.00 88 1012.7
20260901073151 81 122 0.0 0.0 0.00 0.04 0.00 88 1012.7
20260901071546 82 122 0.0 0.0 0.00 0.04 0.00 87 1012.8
20260901070057 82 122 0.0 0.0 0.00 0.04 0.00 87 1013.0
20260901064545 82 122 0.0 0.0 0.00 0.04 0.00 86 1012.9
20260901063047 82 122 0.0 0.0 0.00 0.04 0.00 86 1012.8
20260901061542 82 122 0.0 0.0 0.00 0.04 0.00 86 1012.9
20260901060045 82 122 0.0 0.0 0.00 0.04 0.00 86 1013.2
20260901054541 82 122 0.0 0.0 0.00 0.04 0.00 86 1013.1
20260901053102 82 122 0.0 2.0 0.00 0.04 0.00 85 1013.0
20260901051538 82 122 0.0 1.0 0.00 0.04 0.00 85 1013.0
20260901050037 82 122 0.0 1.0 0.00 0.04 0.00 86 1013.0
20260901044554 82 122 0.0 0.0 0.00 0.04 0.04 85 1012.8
20260901043040 82 122 0.0 0.0 0.00 0.04 0.04 85 1013.0
20260901041536 83 122 0.0 0.0 0.00 0.04 0.04 84 1013.0
20260901040036 83 122 0.0 0.0 0.00 0.04 0.04 84 1012.9
20260901034541 83 122 0.0 1.0 0.00 0.04 0.04 84 1012.9
20260901033041 83 122 0.0 0.0 0.00 0.04 0.04 84 1012.9
20260901031544 84 122 0.0 0.0 0.00 0.04 0.04 84 1012.9
20260901030034 84 122 0.0 0.0 0.00 0.04 0.04 83 1012.7
20260901024536 85 122 0.0 0.0 0.00 0.04 0.04 82 1012.5
20260901023039 85 201 0.0 0.0 0.00 0.04 0.04 82 1012.2
20260901021538 85 201 0.0 0.0 0.00 0.04 0.04 82 1012.1
20260901020054 85 201 0.0 0.0 0.00 0.04 0.04 82 1011.9
20260901014531 85 201 0.0 0.0 0.00 0.04 0.04 81 1011.7
20260901013030 86 201 0.0 0.0 0.00 0.04 0.04 80 1011.7
20260901011537 86 201 0.0 0.0 0.00 0.04 0.04 79 1011.8
20260901010029 87 201 0.0 0.0 0.00 0.04 0.04 77 1011.6
20260901004528 87 201 0.0 0.0 0.00 0.04 0.04 77 1011.7
20260901003030 87 182 0.0 1.0 0.00 0.04 0.04 76 1011.8
20260901001528 88 209 0.0 2.0 0.00 0.04 0.04 75 1011.8
20260901000026 88 226 0.0 2.0 0.00 0.04 0.04 75 1011.7
20260831234526 88 212 0.0 1.0 0.00 0.04 0.04 74 1011.7
20260831233035 88 169 0.0 0.0 0.00 0.04 0.04 73 1011.8
20260831231526 89 182 0.0 1.0 0.00 0.04 0.04 73 1011.8
20260831230023 89 182 0.0 1.0 0.00 0.04 0.04 73 1011.9
20260831224522 89 159 0.0 1.0 0.00 0.04 0.04 74 1012.0
20260831223022 88 138 0.0 1.0 0.00 0.04 0.04 76 1012.0
20260831221520 87 166 0.0 1.0 0.00 0.04 0.04 79 1012.0
20260831220023 85 205 0.0 1.0 0.00 0.04 0.04 82 1012.2
20260831214519 84 218 0.0 2.0 0.00 0.04 0.04 84 1012.4
20260831213028 83 200 0.0 4.0 0.00 0.04 0.04 86 1012.6
20260831211516 82 252 0.0 2.0 0.03 0.04 0.04 87 1012.8
20260831210020 82 231 0.0 2.0 0.04 0.04 0.04 86 1012.9
20260831204515 82 238 4.0 10.0 0.04 0.04 0.04 86 1013.4
20260831203013 84 266 2.0 6.0 0.04 0.04 0.04 82 1013.6
20260831201514 87 98 4.0 14.0 0.00 0.00 0.00 76 1013.6
20260831200021 91 160 1.0 5.0 0.00 0.00 0.00 73 1013.3
20260831194524 91 88 2.0 6.0 0.00 0.00 0.00 68 1013.5
20260831193012 90 300 3.0 6.0 0.00 0.00 0.00 71 1013.5
20260831191512 90 10 1.0 11.0 0.00 0.00 0.00 72 1013.7
20260831190010 93 15 1.0 6.0 0.00 0.00 0.00 65 1013.9
20260831184513 92 54 1.0 5.0 0.00 0.00 0.00 66 1013.9
20260831183107 92 335 0.0 4.0 0.00 0.00 0.00 67 1014.0
20260831181557 91 134 1.0 4.0 0.00 0.00 0.00 68 1014.2
20260831180053 90 112 1.0 6.0 0.00 0.00 0.00 71 1014.5
20260831174602 90 95 1.0 7.0 0.00 0.00 0.00 72 1014.5
20260831173058 89 71 1.0 5.0 0.00 0.00 0.00 75 1014.7
20260831171545 88 192 0.0 4.0 0.00 0.00 0.00 77 1014.8
20260831170044 86 279 1.0 5.0 0.00 0.00 0.00 77 1015.0
20260831164542 88 154 1.0 8.0 0.00 0.00 0.00 77 1015.0
20260831163049 87 58 5.0 10.0 0.00 0.00 0.00 79 1014.9
20260831161541 88 51 2.0 8.0 0.00 0.00 0.00 78 1015.0
20260831160045 88 81 1.0 9.0 0.00 0.00 0.00 76 1015.0
20260831154537 87 81 2.0 7.0 0.00 0.00 0.00 81 1014.8
20260831153036 86 61 2.0 8.0 0.00 0.00 0.00 81 1014.9
20260831151534 86 351 0.0 5.0 0.00 0.00 0.00 81 1014.9
20260831150033 86 48 2.0 5.0 0.00 0.00 0.00 82 1014.9
20260831144542 84 33 1.0 4.0 0.00 0.00 0.00 84 1014.8
20260831143033 83 331 0.0 3.0 0.00 0.00 0.00 85 1014.6
20260831141522 82 344 0.0 4.0 0.00 0.00 0.00 87 1014.7
20260831140018 81 55 0.0 5.0 0.00 0.00 0.00 90 1014.7
20260831134514 80 340 0.0 3.0 0.00 0.00 0.00 91 1014.4
20260831133012 80 313 0.0 0.0 0.00 0.00 0.00 91 1014.2
20260831131510 79 313 0.0 0.0 0.00 0.00 0.00 91 1014.2
20260831130008 79 313 0.0 0.0 0.00 0.00 0.00 91 1013.9
20260831124510 79 313 0.0 0.0 0.00 0.00 0.00 91 1013.6
20260831123006 79 313 0.0 0.0 0.00 0.00 0.00 91 1013.5
20260831121507 79 313 1.0 3.0 0.00 0.00 0.00 91 1013.3
20260831120013 79 313 0.0 2.0 0.00 0.00 0.00 91 1013.4
20260831114504 79 313 0.0 0.0 0.00 0.00 0.00 91 1013.1
20260831113004 79 306 0.0 3.0 0.00 0.00 0.00 91 1013.0
20260831111503 79 308 1.0 2.0 0.00 0.00 0.00 91 1013.0
20260831110003 79 311 1.0 3.0 0.00 0.00 0.00 91 1012.9
20260831104504 79 282 1.0 3.0 0.00 0.00 0.00 92 1012.9
20260831103001 79 235 0.0 0.0 0.00 0.00 0.00 92 1013.1
20260831101601 79 235 0.0 2.0 0.00 0.00 0.00 91 1013.0
20260831100106 79 206 0.0 0.0 0.00 0.00 0.00 91 1013.1
20260831094600 79 206 0.0 0.0 0.00 0.00 0.00 91 1013.1
20260831093100 79 206 0.0 0.0 0.00 0.00 0.00 91 1013.0
20260831091557 79 206 0.0 0.0 0.00 0.00 0.00 90 1012.9
20260831090058 79 206 0.0 0.0 0.00 0.00 0.00 90 1012.8
20260831084603 79 206 0.0 0.0 0.00 0.00 0.00 90 1012.9
20260831083055 79 206 0.0 0.0 0.00 0.00 0.00 89 1013.0
20260831081625 80 206 0.0 0.0 0.00 0.00 0.00 89 1013.1